Regional Weather Roundup
Issued by NWS

Home | Current Version | Previous Version | Text Only | Print | Product List | Glossary On
Versions: 1 2 3 4 5 6 7 8 9 10 11 12 13 14 15 16 17 18 19 20 21 22 23 24 25 26 27 28 29 30 31 32 33 34 35 36 37 38 39 40 41 42 43 44 45 46 47 48 49 50
000
ASUS43 KFSD 260810
RWRSD

WEATHER ROUNDUP FOR SOUTH DAKOTA
NATIONAL WEATHER SERVICE SIOUX FALLS SD
300 AM CDT MON SEP 26 2016

NOTE: "FAIR" INDICATES FEW OR NO CLOUDS BELOW 12,000 FEET WITH NO
SIGNIFICANT WEATHER AND/OR OBSTRUCTIONS TO VISIBILITY.


SDZ001>005-009-010-012>017-260900-
NORTHWEST AND NORTH CENTRAL SOUTH DAKOTA

CITY           SKY/WX    TMP DP  RH WIND       PRES   REMARKS
BUFFALO          N/A     43  37  79 W7        30.20S
FAITH            N/A     46  38  73 W8        30.25S
MOBRIDGE       CLEAR     45  36  70 NW6       30.18R
$$

SDZ012>016-024>037-041>051-057-063-072>074-260900-
SOUTHWEST AND SOUTH CENTRAL SOUTH DAKOTA

CITY           SKY/WX    TMP DP  RH WIND       PRES   REMARKS
RAPID CTY ARPT CLEAR     43  34  70 W6        30.31F
PIERRE         PTCLDY    46  35  65 W6        30.21F
CUSTER         CLEAR     43  30  60 W3        30.37S
ELLSWORTH AFB  CLEAR     44  35  68 W3        30.29F
PHILIP         CLEAR     42  35  76 W12       30.27F
PINE RIDGE     CLEAR     33  28  81 CALM      30.34S
WINNER         FAIR      47  34  60 SW7       30.26S
$$

SDZ004>011-016>023-039-040-260900-
NORTHEAST SOUTH DAKOTA

CITY           SKY/WX    TMP DP  RH WIND       PRES   REMARKS
ABERDEEN       PTCLDY    41  34  76 W8        30.13F
WATERTOWN      CLEAR     49  36  61 W12       30.10S
BROOKINGS      CLEAR     46  36  68 W10       30.12F
SISSETON         N/A     51  36  56 NW15      30.04S
$$

SDZ017-020-022-023-036>040-048>070-260900-
SOUTHEAST SOUTH DAKOTA

CITY           SKY/WX    TMP DP  RH WIND       PRES   REMARKS
SIOUX FALLS    CLEAR     46  37  71 W8        30.16S
HURON          CLEAR     45  33  63 W10       30.16F
CHAMBERLAIN    CLEAR     47  37  70 W6        30.23S
MITCHELL       PTCLDY    48  35  60 W12       30.19F
YANKTON        CLEAR     52  34  50 W13       30.19S
$$

ABBREVIATIONS USED IN REMARKS
   TC - TEMPERATURE IN CELSIUS
  WCI - WIND CHILL INDEX
   HX - HEAT INDEX
  VSB - VISIBILITY





USA.gov is the U.S. government's official web portal to all federal, state and local government web resources and services.